Погода в Ейском Укреплении

Россия / Краснодарский край     46°42′28″N   38°36′52″E
темп.,
°C
ветер,
м/с
пор.,
м/с
влажн.,
%
обл.,
%
осадки,
мм/ч
давл.,
гПа
погр.,
м
16 октября, сб
сб1600:00+11всв611645 0.0 1021291
03:00+10всв6126837 0.0 1019293
06:00+10всв6117449 0.0 1018259
09:00+12в71164100 0.0 1018346
12:00+18в6841100 0.0 1016618
15:00+19в463798 0.0 1015685
18:00+17всв3445100 0.0 101458
21:00+15в3451100 0.0 101558
17 октября, вс
вс1700:00+14всв3353100 0.0 101442
03:00+13св4657100 0.0 1014100
06:00+12св4563100 0.0 1014109
09:00+14св4659100 0.0 1014248
12:00+16ссв4446100 0.0 1014385
15:00+17ссв454099 0.0 1013395
18:00+15ссз3345100 0.0 101427
21:00+14ссв48585 0.0 1015131
18 октября, пн
пн1800:00+13ссв466259 0.0 101596
03:00+12ссв346552 0.0 101584
06:00+11с336632 0.0 101657
09:00+14с335822 0.0 1017208
12:00+16ссз335146 0.0 1017489
15:00+16сз555444 0.0 1016557
18:00+13зсз356973 0.0 1017157
21:00+13з4668100 0.0 1017247
19 октября, вт
вт1900:00+12ссз476227 0.0 1018225
03:00+10сз4662100 0.0 1018219
06:00+10зсз4662100 0.0 1019303
09:00+11зсз4556100 0.0 1019604
12:00+12з4753100 0.0 10191364
15:00+11зсз3459100 0.1 1018724
18:00+10сз2475100 1.6 1018375
21:00+10ссз6782100 2.7 1018705
20 октября, ср
ср2000:00+9с596696 1.9 1020960
03:00+8ссз710510 1.9 1022461
06:00+7ссз79632 0.0 1024458
09:00+7ссз77625 0.0 1026814
12:00+8сз56555 0.0 10281228
15:00+9сз45475 0.0 10281424
18:00+9сз24465 0.0 1029458
21:00+8ссз224881 0.0 1029388